KA3MCG-13 Weather Reports


time (UTC)temp
F
wind
direction
speed
knots
gust
knots
rain 1hr
in
rain 24hr
in
rain mn
in
humidity
%
barometer
mb
20260507143016 58 270 1.7 6.1 0.00 0.06 0.00 43 1011.4
20260507140016 55 315 1.7 9.6 0.00 0.17 0.00 47 1011.7
20260507133016 54 113 1.7 6.1 0.00 0.20 0.00 49 1012.3
20260507130016 53 158 0.9 5.2 0.00 0.24 0.00 62 1012.2
20260507123015 52 270 0.9 4.3 0.00 0.26 0.00 63 1011.9
20260507120016 51 0.0 3.5 0.00 0.27 0.00 66 1012.0
20260507113016 50 0.0 3.5 0.00 0.31 0.00 72 1012.1
20260507110020 49 0.0 1.7 0.00 0.34 0.00 78 1011.6
20260507103019 49 0.0 0.0 0.00 0.35 0.00 79 1011.6
20260507100019 50 0.0 1.7 0.00 0.35 0.00 78 1010.9
20260507093039 51 0.0 0.9 0.00 0.35 0.00 79 1011.0
20260507090040 52 0.0 1.7 0.00 0.35 0.00 78 1010.8
20260507083036 52 293 0.9 3.5 0.00 0.35 0.00 72 1010.7
20260507080036 52 315 0.9 4.3 0.00 0.35 0.00 83 1010.4
20260507073015 52 0.0 1.7 0.00 0.35 0.00 86 1010.3
20260507070015 53 0.0 3.5 0.00 0.35 0.00 87 1010.5
20260507063015 52 0.0 1.7 0.00 0.35 0.00 86 1010.7
20260507060015 53 0.0 1.7 0.00 0.35 0.00 86 1010.7
20260507053035 54 0.0 1.7 0.00 0.35 0.00 85 1010.3
20260507050035 54 180 0.9 3.5 0.00 0.35 0.00 84 1010.2
20260507043015 55 113 0.9 2.6 0.00 0.35 0.00 81 1010.4
20260507040015 55 180 0.9 1.7 0.00 0.35 0.35 86 1010.3
20260507033017 56 293 1.7 6.1 0.00 0.35 0.35 83 1009.7
20260507030017 56 113 0.9 3.5 0.00 0.35 0.35 88 1010.1
20260507023017 57 0.0 2.6 0.00 0.35 0.35 86 1009.7
20260507020017 57 113 0.9 5.2 0.00 0.35 0.35 86 1009.7
20260507013017 58 113 1.7 11.3 0.01 0.35 0.35 85 1009.3
20260507010017 59 338 2.6 10.4 0.01 0.35 0.35 84 1009.1
20260507003016 60 270 3.5 11.3 0.00 0.34 0.34 83 1009.0
20260507000017 61 293 4.3 16.5 0.00 0.34 0.34 81 1008.6
20260506233036 61 293 2.6 10.4 0.00 0.34 0.34 84 1007.8
20260506230036 63 270 1.7 8.7 0.00 0.34 0.34 87 1007.8
20260506223017 64 293 0.9 5.2 0.03 0.34 0.34 88 1007.6
20260506220016 65 270 0.9 2.6 0.03 0.34 0.34 87 1007.6
20260506213016 66 248 0.9 4.3 0.00 0.31 0.31 84 1007.2
20260506210022 68 270 0.9 4.3 0.00 0.31 0.31 81 1006.8
20260506203016 68 270 1.7 6.1 0.00 0.31 0.31 82 1006.5
20260506200016 67 248 1.7 10.4 0.00 0.31 0.31 83 1006.6
20260506193016 67 248 2.6 8.7 0.00 0.31 0.31 84 1006.8
20260506190017 64 315 0.9 4.3 0.00 0.31 0.31 89 1006.8
20260506183016 63 248 1.7 5.2 0.00 0.31 0.31 88 1007.0
20260506180016 63 270 0.9 7.0 0.00 0.31 0.31 89 1007.0
20260506173016 63 203 0.9 6.1 0.00 0.31 0.31 90 1006.9
20260506170016 62 203 0.9 3.5 0.00 0.31 0.31 90 1006.9
20260506163016 61 248 0.9 4.3 0.00 0.31 0.31 90 1007.0
20260506160016 61 180 0.9 11.3 0.00 0.31 0.31 90 1007.0
20260506153016 61 135 0.9 5.2 0.02 0.31 0.31 91 1007.0